User: anonymous   Login
Location: Unspecified
(0.0000°N, 0.0000°E)
Time: 23:34:23
(UTC+00:00)
Language:

OV3-3 - Orbit

View from above orbital plane
View from above orbital plane
View from above satellite
View from above satellite

Ground track
Ground track

The orbit data is extracted from the following two-line orbital elements,

1 02389U 66070A   24051.54233686  .00011664  00000-0  59058-3 0  9998
2 02389  81.3409 342.8287 1137969 151.6393 215.1824 13.16062838486141
Epoch (UTC): 20 February 2024 13:00:57
Eccentricity: 0.1137969
inclination: 81.3409°
perigee height: 337 km
apogee height: 2062 km
right ascension of ascending node: 342.8287°
argument of perigee: 151.6393°
revolutions per day: 13.16062838
mean anomaly at epoch: 215.1824°
orbit number at epoch: 48614

The dashed part of the orbit path shows where the satellite is in the earth's shadow,  

DLR